Cedar City, UT

9:15 PM MST on November 22, 2017 (GMT -0700)
Cedar City Regional

Weather History for KCDC - October, 2012

Change the Weather History Date:

Friday, October 12, 2012

  Actual Average Record
Temperature  
Mean Temperature 45 °F 51 °F  
Max Temperature 49 °F 68 °F 84 °F (1950)
Min Temperature 40 °F 35 °F 20 °F (1969)
Degree Days  
Heating Degree Days 20 14  
Month to date heating degree days 99 142  
Since 1 July heating degree days 171 285  
Cooling Degree Days 0 0  
Month to date cooling degree days 0 0  
Year to date cooling degree days 715 588  
Moisture  
Dew Point 41 °F    
Average Humidity 77    
Maximum Humidity 93    
Minimum Humidity 60    
Precipitation  
Precipitation 0.59 in 0.04 in 0.92 in (1980)
Month to date precipitation 0.65 0.47  
Year to date precipitation 10.51 8.67  
Sea Level Pressure  
Sea Level Pressure 29.98 in    
Wind  
Wind Speed 10 mph (SSW)    
Max Wind Speed 33 mph    
Max Gust Speed 44 mph    
Visibility 8 miles    
Events Rain , Thunderstorm    
T = Trace of Precipitation, MM = Missing Value Source: NWS Daily Summary

Daily Weather History Graph

Daily Weather History Graph

Search for Another Location

Airport or City:

Trip Planner

Search our weather history database for the weather conditions in past years. The results will help you decide how hot, cold, wet, or windy it might be!

Date:

Astronomy

Oct. 12, 2012 Rise Set
Actual Time 7:38 AM MDT 6:58 PM MDT
Civil Twilight 7:12 AM MDT 7:24 PM MDT
Nautical Twilight 6:41 AM MDT 7:55 PM MDT
Astronomical Twilight 6:11 AM MDT 8:25 PM MDT
Moon 4:28 AM MDT (10/12) 5:08 PM MDT (10/12)
Length of Visible Light 12h 12m
Length of Day
11h 20m
Waning Crescent, 10% of the Moon is Illuminated
Oct 12
Waning Crescent
Oct 15
New
Oct 21
First Quarter
Oct 29
Full
Nov 6
Last Quarter

Hourly Weather History & Observations

Time (MDT) Temp. Windchill Dew Point Humidity Pressure Visibility Wind Dir Wind Speed Gust Speed Precip Events Conditions
12:29 AM 48.2 °F - 46.4 °F 93% 29.98 in 2.0 mi NNW 6.9 mph - N/A   Overcast
12:38 AM 48.2 °F - 46.4 °F 93% 29.97 in 10.0 mi North 8.1 mph - N/A   Overcast
12:53 AM 48.0 °F - 46.0 °F 93% 29.81 in 10.0 mi NNE 5.8 mph - N/A   Overcast
1:31 AM 46.4 °F 43.5 °F 44.6 °F 93% 29.97 in 10.0 mi West 5.8 mph - N/A   Scattered Clouds
1:53 AM 46.0 °F - 44.1 °F 93% 29.84 in 10.0 mi Calm Calm - 0.01 in Rain , Thunderstorm Light Rain
2:22 AM 46.4 °F 44.3 °F 44.6 °F 93% 29.98 in 5.0 mi Variable 4.6 mph - 0.17 in Rain Rain
2:53 AM 46.9 °F - 45.0 °F 93% 29.83 in 6.0 mi East 8.1 mph 16.1 mph 0.21 in Rain Light Rain
3:42 AM 48.2 °F - 44.6 °F 87% 29.96 in 10.0 mi WSW 9.2 mph - 0.00 in Thunderstorm Mostly Cloudy
3:53 AM 46.9 °F - 45.0 °F 93% 29.84 in 8.0 mi WNW 6.9 mph - 0.01 in Rain Light Rain
4:01 AM 46.4 °F 45.2 °F 44.6 °F 93% 29.97 in 9.0 mi NW 3.5 mph - 0.01 in Rain Light Rain
4:14 AM 46.4 °F - 44.6 °F 93% 29.97 in 10.0 mi Calm Calm - 0.01 in   Overcast
4:53 AM 46.9 °F - 45.0 °F 93% 29.85 in 8.0 mi North 4.6 mph - 0.07 in Rain Light Rain
5:00 AM 46.4 °F 44.3 °F 44.6 °F 93% 29.99 in 10.0 mi West 4.6 mph - 0.00 in Rain Light Rain
5:13 AM 46.4 °F 40.7 °F 42.8 °F 87% 29.99 in 5.0 mi WSW 12.7 mph 21.9 mph 0.03 in Rain Rain
5:39 AM 44.6 °F 37.8 °F 42.8 °F 93% 29.99 in 8.0 mi WSW 15.0 mph 20.7 mph 0.06 in Rain Light Rain
5:53 AM 44.1 °F 40.1 °F 42.1 °F 93% 29.88 in 10.0 mi WSW 6.9 mph - 0.07 in Rain Light Rain
6:53 AM 46.0 °F 41.9 °F 39.0 °F 76% 29.86 in 10.0 mi SSE 8.1 mph - 0.01 in Rain Light Rain
7:53 AM 46.0 °F 37.6 °F 35.1 °F 66% 29.86 in 10.0 mi ESE 24.2 mph 33.4 mph 0.00 in Rain Light Rain
8:53 AM 46.9 °F - 33.1 °F 59% 29.85 in 10.0 mi SE 9.2 mph 21.9 mph 0.00 in   Overcast
9:53 AM 48.9 °F - 39.9 °F 71% 29.88 in 10.0 mi SSW 8.1 mph - N/A   Clear
10:51 AM 44.6 °F 37.2 °F 37.4 °F 76% 30.03 in 10.0 mi SW 17.3 mph 25.3 mph N/A   Overcast
11:05 AM 41.0 °F 34.3 °F 37.4 °F 87% 30.03 in 7.0 mi SSW 11.5 mph 21.9 mph 0.02 in Rain Rain
11:27 AM 41.0 °F 34.7 °F 37.4 °F 87% 30.05 in 2.5 mi SSW 10.4 mph 24.2 mph 0.07 in Rain Rain
11:38 AM 39.2 °F 34.2 °F 37.4 °F 93% 30.05 in 3.0 mi SW 6.9 mph - 0.11 in Rain Rain
11:53 AM 41.0 °F 35.2 °F 37.9 °F 89% 29.98 in 5.0 mi SSW 9.2 mph - 0.15 in Rain Rain
12:53 PM 43.0 °F 37.2 °F 39.0 °F 86% 29.97 in 10.0 mi SSW 10.4 mph - 0.03 in Rain Light Rain
1:53 PM 45.0 °F 39.7 °F 42.1 °F 90% 29.96 in 10.0 mi SW 10.4 mph - 0.01 in Rain Light Rain
2:22 PM 44.6 °F 42.2 °F 41.0 °F 87% 30.03 in 10.0 mi SSW 4.6 mph - 0.01 in Rain Light Rain
2:53 PM 46.0 °F 40.6 °F 42.1 °F 86% 29.94 in 10.0 mi SSW 11.5 mph - 0.01 in   Overcast
3:53 PM 46.0 °F 39.9 °F 41.0 °F 83% 29.94 in 10.0 mi SSW 13.8 mph - 0.00 in   Overcast
4:53 PM 45.0 °F 39.3 °F 39.9 °F 82% 29.96 in 10.0 mi SSW 11.5 mph - 0.01 in Rain Light Rain
5:53 PM 44.1 °F 38.1 °F 39.9 °F 85% 29.99 in 10.0 mi SSW 11.5 mph - 0.01 in Rain Light Rain
6:23 PM 44.6 °F 40.2 °F 41.0 °F 87% 30.06 in 7.0 mi SSW 8.1 mph 17.3 mph 0.03 in Rain Light Rain
6:36 PM 44.6 °F 41.4 °F 41.0 °F 87% 30.07 in 10.0 mi SSW 5.8 mph - 0.03 in Rain Light Rain
6:53 PM 44.1 °F 40.1 °F 41.0 °F 89% 30.01 in 10.0 mi South 6.9 mph - 0.03 in Rain Light Rain
7:25 PM 42.8 °F 36.6 °F 39.2 °F 87% 30.08 in 8.0 mi South 11.5 mph - 0.03 in Rain Light Rain
8:00 PM 42.8 °F 37.5 °F 39.2 °F 87% 30.10 in 9.0 mi South 9.2 mph - 0.00 in Rain Light Rain
8:17 PM 42.8 °F 37.5 °F 39.2 °F 87% 30.10 in 10.0 mi South 9.2 mph - 0.01 in Rain Light Rain
8:53 PM 43.0 °F 40.3 °F 39.9 °F 89% 30.04 in 8.0 mi SSW 4.6 mph - 0.04 in Rain Light Rain
9:02 PM 42.8 °F 38.6 °F 39.2 °F 87% 30.10 in 8.0 mi SSW 6.9 mph - 0.01 in Rain Light Rain
9:37 PM 42.8 °F 37.5 °F 39.2 °F 87% 30.10 in 9.0 mi South 9.2 mph - 0.03 in Rain Light Rain
9:53 PM 43.0 °F 38.2 °F 39.0 °F 86% 30.04 in 8.0 mi South 8.1 mph - 0.05 in Rain Light Rain
10:53 PM 42.1 °F 37.1 °F 39.9 °F 92% 30.06 in 9.0 mi SSW 8.1 mph - 0.04 in Rain Light Rain
11:53 PM 44.1 °F 40.8 °F 39.9 °F 85% 30.06 in 10.0 mi South 5.8 mph - 0.03 in Rain Light Rain